Weather History for Rush City, MN

Change the Weather History Date:

Thursday, December 20, 2012

  Actual Average (KCBG) Record (KCBG)
Temperature  
Mean Temperature 17 °F -  
Max Temperature 25 °F 22 °F 47 °F (1967)
Min Temperature 9 °F 3 °F -33 °F (1983)
Degree Days  
Heating Degree Days 48    
Moisture  
Dew Point 16 °F    
Average Humidity 82    
Maximum Humidity 88    
Minimum Humidity 75    
Precipitation  
Precipitation 0.00 in - - ()
Sea Level Pressure  
Sea Level Pressure 29.93 in    
Wind  
Wind Speed 9 mph (NNW)    
Max Wind Speed 18 mph    
Max Gust Speed 28 mph    
Visibility 10 miles    
Events      
Averages and records for this station are not official NWS values.
T = Trace of Precipitation, MM = Missing Value Source: NWS Daily Summary

Daily Weather History Graph

Daily Weather History Graph

Search for Another Location

Airport:

Trip Planner

Search our weather history database for the weather conditions in past years. The results will help you decide how hot, cold, wet, or windy it might be!

Date:

Astronomy

Dec. 20, 2012 Rise Set
Actual Time 7:49 AM CST 4:30 PM CST
Civil Twilight 7:14 AM CST 5:04 PM CST
Nautical Twilight 6:37 AM CST 5:42 PM CST
Astronomical Twilight 6:00 AM CST 6:18 PM CST
Moon 12:03 PM CST (12/20) 12:20 AM CST (12/20)
Length of Visible Light 9h 49m
Length of Day
8h 40m
First Quarter, 55% of the Moon is Illuminated
Dec 20
First Quarter
Dec 28
Full
Jan 4
Last Quarter
Jan 11
New
Jan 18
First Quarter

Hourly Weather History & Observations

Time (CST) Temp. Windchill Dew Point Humidity Pressure Visibility Wind Dir Wind Speed Gust Speed Precip Events Conditions
12:15 AM 24.3 °F 19.9 °F 19.9 °F 84% 29.98 in 10.0 mi NNW 3.5 mph - N/A   Overcast
12:35 AM 24.3 °F 16.3 °F 18.9 °F 80% 29.98 in 10.0 mi North 6.9 mph - N/A   Overcast
12:54 AM 23.9 °F 15.8 °F 18.9 °F 81% 29.97 in 10.0 mi North 6.9 mph - N/A   Overcast
1:35 AM 23.4 °F 17.4 °F 19.0 °F 84% 29.96 in 10.0 mi North 4.6 mph - N/A   Overcast
1:54 AM 23.0 °F 17.0 °F 18.9 °F 84% 29.96 in 10.0 mi NNW 4.6 mph - N/A   Overcast
2:14 AM 23.0 °F 17.0 °F 19.0 °F 85% 29.96 in 10.0 mi NNW 4.6 mph - N/A   Overcast
2:35 AM 22.8 °F 14.5 °F 18.9 °F 85% 29.97 in 10.0 mi NNW 6.9 mph - N/A   Overcast
2:54 AM 22.8 °F 15.5 °F 18.9 °F 85% 29.96 in 10.0 mi NNW 5.8 mph - N/A   Overcast
3:15 AM 22.6 °F 12.6 °F 18.5 °F 84% 29.96 in 10.0 mi North 9.2 mph - N/A   Overcast
3:34 AM 22.1 °F 13.7 °F 18.1 °F 85% 29.95 in 10.0 mi North 6.9 mph - N/A   Overcast
3:55 AM 22.1 °F 12.8 °F 18.3 °F 85% 29.95 in 10.0 mi North 8.1 mph - N/A   Overcast
4:15 AM 21.9 °F 14.5 °F 18.1 °F 85% 29.94 in 10.0 mi NNW 5.8 mph - N/A   Overcast
4:34 AM 21.7 °F 12.3 °F 17.8 °F 85% 29.93 in 10.0 mi North 8.1 mph - N/A   Overcast
4:55 AM 21.7 °F 13.2 °F 18.0 °F 85% 29.92 in 10.0 mi North 6.9 mph - N/A   Overcast
5:15 AM 21.6 °F 11.3 °F 18.1 °F 87% 29.92 in 10.0 mi North 9.2 mph - N/A   Overcast
5:34 AM 21.2 °F 10.9 °F 18.1 °F 88% 29.91 in 10.0 mi NNW 9.2 mph - N/A   Overcast
5:55 AM 21.6 °F 9.9 °F 18.3 °F 87% 29.91 in 10.0 mi NNW 11.5 mph - N/A   Overcast
6:15 AM 21.7 °F 10.8 °F 18.3 °F 87% 29.91 in 10.0 mi NNW 10.4 mph - N/A   Overcast
6:34 AM 21.6 °F 10.6 °F 18.1 °F 87% 29.91 in 10.0 mi NNW 10.4 mph - N/A   Overcast
6:55 AM 21.9 °F 11.0 °F 18.3 °F 86% 29.91 in 10.0 mi North 10.4 mph - N/A   Overcast
7:15 AM 22.1 °F 10.0 °F 18.3 °F 85% 29.90 in 10.0 mi North 12.7 mph 20.7 mph N/A   Overcast
7:34 AM 22.1 °F 10.6 °F 18.3 °F 85% 29.90 in 10.0 mi North 11.5 mph 17.3 mph N/A   Overcast
7:54 AM 22.1 °F 11.3 °F 18.5 °F 86% 29.91 in 10.0 mi North 10.4 mph - N/A   Overcast
8:15 AM 22.5 °F 10.5 °F 18.5 °F 85% 29.91 in 10.0 mi North 12.7 mph 18.4 mph N/A   Overcast
8:34 AM 22.6 °F 10.1 °F 18.5 °F 84% 29.91 in 10.0 mi North 13.8 mph 21.9 mph N/A   Overcast
8:55 AM 23.0 °F 11.1 °F 18.9 °F 84% 29.91 in 10.0 mi North 12.7 mph 18.4 mph N/A   Overcast
9:15 AM 23.0 °F 10.6 °F 19.0 °F 85% 29.91 in 10.0 mi North 13.8 mph 18.4 mph N/A   Overcast
9:34 AM 23.2 °F 10.8 °F 19.0 °F 84% 29.91 in 10.0 mi North 13.8 mph 19.6 mph N/A   Overcast
9:55 AM 23.5 °F 11.8 °F 19.2 °F 84% 29.91 in 10.0 mi North 12.7 mph 23.0 mph N/A   Overcast
10:14 AM 23.9 °F 10.8 °F 19.4 °F 83% 29.91 in 10.0 mi North 16.1 mph 24.2 mph N/A   Overcast
10:35 AM 24.1 °F 11.5 °F 19.4 °F 82% 29.91 in 10.0 mi North 15.0 mph 24.2 mph N/A   Overcast
10:55 AM 24.6 °F 11.3 °F 19.4 °F 81% 29.90 in 10.0 mi North 17.3 mph 21.9 mph N/A   Overcast
11:14 AM 24.8 °F 12.9 °F 19.6 °F 81% 29.89 in 10.0 mi North 13.8 mph 20.7 mph N/A   Overcast
11:35 AM 24.8 °F 12.9 °F 19.4 °F 80% 29.88 in 10.0 mi North 13.8 mph 24.2 mph N/A   Overcast
11:54 AM 24.8 °F 12.4 °F 19.4 °F 80% 29.87 in 10.0 mi North 15.0 mph 26.5 mph N/A   Overcast
12:15 PM 24.8 °F 11.5 °F 18.9 °F 78% 29.86 in 10.0 mi North 17.3 mph 24.2 mph N/A   Overcast
12:35 PM 25.3 °F 13.1 °F 19.0 °F 77% 29.86 in 10.0 mi North 15.0 mph 24.2 mph N/A   Overcast
12:54 PM 25.3 °F 14.1 °F 18.9 °F 76% 29.86 in 10.0 mi NNW 12.7 mph 23.0 mph N/A   Overcast
1:15 PM 25.3 °F 12.6 °F 18.7 °F 76% 29.85 in 10.0 mi NNW 16.1 mph 20.7 mph N/A   Overcast
1:35 PM 25.5 °F 13.3 °F 18.5 °F 75% 29.85 in 10.0 mi NNW 15.0 mph 24.2 mph N/A   Overcast
1:55 PM 25.3 °F 13.1 °F 18.5 °F 75% 29.85 in 10.0 mi North 15.0 mph 20.7 mph N/A   Overcast
2:15 PM 25.5 °F 13.3 °F 18.7 °F 75% 29.85 in 10.0 mi NNW 15.0 mph 19.6 mph N/A   Overcast
2:55 PM 24.8 °F 13.4 °F 18.3 °F 76% 29.86 in 10.0 mi NNW 12.7 mph 20.7 mph N/A   Overcast
3:14 PM 24.6 °F 10.9 °F 18.0 °F 76% 29.86 in 10.0 mi NNW 18.4 mph 25.3 mph N/A   Overcast
3:35 PM 23.9 °F 11.7 °F 17.4 °F 76% 29.86 in 10.0 mi NNW 13.8 mph 27.6 mph N/A   Mostly Cloudy
3:55 PM 22.8 °F 9.9 °F 16.5 °F 77% 29.87 in 10.0 mi NNW 15.0 mph 23.0 mph N/A   Mostly Cloudy
4:15 PM 21.9 °F 9.2 °F 16.2 °F 78% 29.88 in 10.0 mi NNW 13.8 mph 20.7 mph N/A   Overcast
4:35 PM 21.2 °F 8.9 °F 15.8 °F 80% 29.89 in 10.0 mi NNW 12.7 mph 26.5 mph N/A   Mostly Cloudy
4:54 PM 20.3 °F 7.7 °F 15.4 °F 81% 29.90 in 10.0 mi NNW 12.7 mph 20.7 mph N/A   Mostly Cloudy
5:15 PM 19.8 °F 5.4 °F 14.7 °F 81% 29.91 in 10.0 mi NNW 16.1 mph 24.2 mph N/A   Mostly Cloudy
5:34 PM 19.4 °F 8.6 °F 14.0 °F 80% 29.92 in 10.0 mi NNW 9.2 mph 20.7 mph N/A   Mostly Cloudy
5:55 PM 18.9 °F 6.5 °F 14.0 °F 81% 29.93 in 10.0 mi NNW 11.5 mph 23.0 mph N/A   Overcast
6:15 PM 18.5 °F 7.5 °F 13.8 °F 82% 29.94 in 10.0 mi NNW 9.2 mph 16.1 mph N/A   Overcast
6:35 PM 17.6 °F 5.7 °F 12.6 °F 81% 29.95 in 10.0 mi NNW 10.4 mph 23.0 mph N/A   Overcast
6:55 PM 16.7 °F 3.2 °F 11.5 °F 80% 29.95 in 10.0 mi NW 12.7 mph 23.0 mph N/A   Mostly Cloudy
7:14 PM 15.6 °F 1.8 °F 10.4 °F 80% 29.96 in 10.0 mi NNW 12.7 mph 21.9 mph N/A   Scattered Clouds
7:35 PM 14.9 °F 2.3 °F 10.0 °F 81% 29.96 in 10.0 mi NNW 10.4 mph 17.3 mph N/A   Mostly Cloudy
7:55 PM 14.4 °F 0.9 °F 9.1 °F 80% 29.97 in 10.0 mi NNW 11.5 mph 21.9 mph N/A   Scattered Clouds
8:14 PM 13.8 °F 0.2 °F 8.6 °F 80% 29.97 in 10.0 mi NNW 11.5 mph - N/A   Clear
8:35 PM 13.3 °F 0.3 °F 7.7 °F 78% 29.97 in 10.0 mi NNW 10.4 mph 19.6 mph N/A   Clear
8:55 PM 12.9 °F 0.7 °F 7.7 °F 80% 29.98 in 10.0 mi NNW 9.2 mph 16.1 mph N/A   Scattered Clouds
9:14 PM 12.2 °F -1.0 °F 7.0 °F 80% 29.98 in 10.0 mi NNW 10.4 mph 16.1 mph N/A   Scattered Clouds
9:35 PM 11.8 °F -3.0 °F 6.6 °F 80% 29.99 in 10.0 mi NNW 12.7 mph 19.6 mph N/A   Scattered Clouds
9:54 PM 11.3 °F -2.2 °F 6.4 °F 81% 30.00 in 10.0 mi NW 10.4 mph 16.1 mph N/A   Scattered Clouds
10:15 PM 10.9 °F -1.8 °F 5.9 °F 80% 30.01 in 10.0 mi NW 9.2 mph - N/A   Scattered Clouds
10:35 PM 10.4 °F -2.4 °F 5.7 °F 81% 30.01 in 10.0 mi NNW 9.2 mph - N/A   Mostly Cloudy
10:54 PM 10.2 °F -0.6 °F 5.5 °F 81% 30.02 in 10.0 mi NW 6.9 mph - N/A   Scattered Clouds
11:15 PM 9.9 °F -2.2 °F 5.4 °F 82% 30.03 in 10.0 mi NW 8.1 mph - N/A   Clear
11:35 PM 9.5 °F -3.5 °F 5.0 °F 82% 30.04 in 10.0 mi WNW 9.2 mph - N/A   Clear
11:54 PM 9.3 °F -3.8 °F 5.0 °F 83% 30.04 in 10.0 mi NW 9.2 mph - N/A   Scattered Clouds